Weipa Observation History
Time Wind Speed Temp Pressure Rel. Hum Rain
03/01:30pm ESE 1-3 kts 31.5°c 1008.8 hPa 61% n/a
03/01:00pm SSE 4-7 kts 30.8°c 1009.4 hPa 62% n/a
03/12:30pm N 4-7 kts 30.8°c 1009.9 hPa 62% n/a
03/12:00pm NNE 5-9 kts 30.2°c 1010.4 hPa 65% n/a
03/11:30am ENE 5-8 kts 29.8°c 1010.9 hPa 68% n/a
03/11:00am E 6-8 kts 29.0°c 1011.3 hPa 70% n/a
03/10:40am E 5-10 kts 28.4°c 1011.6 hPa 72% n/a
03/10:30am E 5-8 kts 28.2°c 1011.7 hPa 71% n/a
03/09:41am S 14-41 kts 27.8°c 1011.8 hPa 77% 0.0mm
03/09:33am ESE 6-41 kts 27.6°c 1011.8 hPa 78% 0.0mm
03/09:30am E 4-9 kts 27.5°c 1011.8 hPa 77% 0.0mm
03/09:00am ENE 5-7 kts 27.5°c 1011.7 hPa 80% 11.6mm
03/08:30am NE 3-4 kts 26.8°c 1011.5 hPa 83% 11.6mm
03/08:00am E 3-5 kts 26.4°c 1011.1 hPa 84% 11.6mm
03/07:30am ENE 3-5 kts 26.0°c 1010.7 hPa 87% 11.6mm
03/07:00am N 4-5 kts 25.6°c 1010.3 hPa 87% 11.6mm
03/06:30am NNW 4-5 kts 25.6°c 1010.1 hPa 90% 11.6mm
03/06:00am SW 3-4 kts 25.5°c 1010.0 hPa 91% 11.6mm
03/05:30am CALM 0-4 kts 25.5°c 1009.6 hPa 91% 11.6mm
03/05:00am CALM 0 kts 25.5°c 1009.2 hPa 91% 11.6mm
03/04:30am CALM 0 kts 25.6°c 1009.0 hPa 91% 11.6mm
03/04:00am CALM 0 kts 25.7°c 1009.1 hPa 91% 11.4mm
03/03:30am CALM 0 kts 25.8°c 1009.1 hPa 90% 11.4mm
03/03:00am S 2-4 kts 25.6°c 1009.2 hPa 90% 11.4mm
03/02:30am SSW 3-4 kts 25.3°c 1009.3 hPa 92% 11.4mm
03/02:00am CALM 0-3 kts 25.4°c 1009.3 hPa 90% 11.4mm
03/01:30am E 2-4 kts 25.7°c 1009.3 hPa 88% 11.4mm
03/01:00am ENE 2-4 kts 25.9°c 1009.6 hPa 87% 11.4mm
03/12:30am NE 1-4 kts 25.7°c 1009.9 hPa 89% 11.4mm
03/12:00am NE 3-4 kts 25.8°c 1010.1 hPa 92% 11.4mm
Time Wind Speed Temp Pressure Rel. Hum Rain
02/11:30pm ENE 2-3 kts 25.7°c 1010.4 hPa 91% 11.4mm
02/11:00pm NE 5-6 kts 25.7°c 1010.4 hPa 91% 11.4mm
02/10:30pm N 6-8 kts 25.5°c 1010.3 hPa 91% 11.4mm
02/10:27pm NNW 6-8 kts 25.4°c 1010.3 hPa 91% 11.4mm
02/10:12pm NNW 5-7 kts 25.6°c 1010.4 hPa 91% 11.4mm
02/10:08pm NNW 5-6 kts 25.6°c 1010.4 hPa 91% 11.4mm
02/10:00pm WNW 1-5 kts 25.7°c 1010.5 hPa 91% 11.2mm
02/09:30pm SSE 3-4 kts 25.2°c 1010.4 hPa 91% 10.6mm
02/09:00pm E 12-21 kts 25.8°c 1010.1 hPa 87% 5.4mm
02/08:53pm SE 9-15 kts 26.2°c 1010.0 hPa 88% 0.6mm
02/08:30pm N 5-7 kts 27.9°c 1009.4 hPa 76% 0.0mm
02/08:00pm NNW 7-9 kts 28.2°c 1009.1 hPa 79% 0.0mm
02/07:30pm WSW 1-3 kts 28.3°c 1008.8 hPa 77% 0.0mm
02/07:00pm WNW 4-5 kts 28.6°c 1008.3 hPa 77% 0.0mm
02/06:30pm W 3-4 kts 29.3°c 1007.8 hPa 74% 0.0mm
02/06:00pm WSW 4-6 kts 30.2°c 1007.5 hPa 69% 0.0mm
02/05:30pm WSW 6-9 kts 30.8°c 1007.2 hPa 67% 0.0mm
02/05:00pm WSW 7-10 kts 31.0°c 1007.0 hPa 66% 0.0mm
02/04:30pm WSW 8-14 kts 31.4°c 1006.9 hPa 65% 0.0mm
02/04:00pm SE 6-9 kts 33.2°c 1006.8 hPa 50% 0.0mm
02/03:30pm S 4-7 kts 33.2°c 1007.0 hPa 48% 0.0mm
02/03:00pm SSE 5-9 kts 32.9°c 1007.4 hPa 50% 0.0mm
02/02:30pm SE 5-10 kts 32.8°c 1007.7 hPa 51% 0.0mm
02/02:00pm SSE 7-9 kts 31.5°c 1008.2 hPa 55% 0.0mm
02/01:30pm ESE 8-11 kts 31.9°c 1008.7 hPa 53% 0.0mm
02/01:00pm E 7-10 kts 31.9°c 1009.1 hPa 53% 0.0mm
02/12:30pm ESE 9-11 kts 31.7°c 1009.7 hPa 55% 0.0mm
02/12:00pm ENE 7-11 kts 31.8°c 1010.3 hPa 60% 0.0mm
02/11:30am ENE 11-15 kts 31.0°c 1010.8 hPa 61% 0.0mm
02/11:00am E 11-16 kts 30.3°c 1011.4 hPa 60% 0.0mm
02/10:30am E 10-13 kts 30.1°c 1011.8 hPa 67% 0.0mm
02/10:00am E 12-16 kts 29.0°c 1011.6 hPa 69% 0.0mm
02/09:30am E 9-11 kts 28.7°c 1011.6 hPa 68% 0.0mm
02/09:00am ESE 7-9 kts 27.3°c 1011.4 hPa 75% 0.0mm
02/08:30am ESE 9-11 kts 26.2°c 1011.2 hPa 80% 0.0mm
02/08:00am ESE 5 kts 25.3°c 1010.9 hPa 85% 0.0mm
02/07:30am SSE 4-5 kts 23.9°c 1010.4 hPa 90% 0.0mm
02/07:00am SE 3-5 kts 22.9°c 1010.0 hPa 93% 0.0mm
02/06:30am SSE 4 kts 22.3°c 1009.7 hPa 93% 0.0mm
02/06:00am SSE 1-4 kts 22.3°c 1009.4 hPa 92% 0.0mm
02/05:30am CALM 0 kts 22.5°c 1009.0 hPa 92% 0.0mm
02/05:00am CALM 0 kts 22.3°c 1008.9 hPa 91% 0.0mm
02/04:30am SSE 1-3 kts 22.4°c 1008.7 hPa 91% 0.0mm
02/04:00am ESE 5-6 kts 23.0°c 1008.8 hPa 90% 0.0mm
02/03:30am ESE 4-5 kts 23.1°c 1008.9 hPa 88% 0.0mm
02/03:00am ESE 5 kts 23.4°c 1009.1 hPa 88% 0.0mm
02/02:30am E 4-5 kts 23.4°c 1009.0 hPa 87% 0.0mm
02/02:00am ESE 5-6 kts 23.5°c 1009.1 hPa 87% 0.0mm
02/01:30am SE 4-5 kts 23.5°c 1009.2 hPa 85% 0.0mm
02/01:00am E 3-4 kts 24.0°c 1009.4 hPa 83% 0.0mm
02/12:30am ESE 5-6 kts 24.2°c 1009.6 hPa 81% 0.0mm
02/12:00am ESE 5-6 kts 24.7°c 1009.8 hPa 79% 0.0mm
Time Wind Speed Temp Pressure Rel. Hum Rain
01/11:30pm E 5-6 kts 25.1°c 1010.0 hPa 77% 0.0mm
01/11:00pm E 7-8 kts 25.4°c 1010.1 hPa 76% 0.0mm
01/10:30pm SE 6-7 kts 25.9°c 1010.3 hPa 74% 0.0mm
01/10:00pm ESE 5-6 kts 26.0°c 1010.4 hPa 75% 0.0mm
01/09:30pm E 6-8 kts 26.6°c 1010.1 hPa 72% 0.0mm
01/09:00pm E 7-8 kts 27.2°c 1009.9 hPa 69% 0.0mm
01/08:30pm E 6-8 kts 27.8°c 1009.8 hPa 67% 0.0mm
01/08:00pm ESE 6-7 kts 28.1°c 1009.4 hPa 65% 0.0mm
01/07:30pm ESE 7-8 kts 28.6°c 1009.0 hPa 64% 0.0mm
01/07:00pm ESE 6-8 kts 29.0°c 1008.6 hPa 62% 0.0mm
01/06:30pm ESE 8-10 kts 30.3°c 1008.3 hPa 55% 0.0mm
01/06:00pm ESE 9-12 kts 31.3°c 1008.1 hPa 52% 0.0mm
01/05:30pm SE 9-13 kts 31.9°c 1007.9 hPa 51% 0.0mm
01/05:00pm SE 9-14 kts 32.5°c 1007.5 hPa 49% 0.0mm
01/04:30pm SE 10-15 kts 32.8°c 1007.3 hPa 50% 0.0mm
01/04:00pm ESE 10-14 kts 33.1°c 1006.9 hPa 50% 0.0mm
01/03:30pm ESE 11-16 kts 32.9°c 1007.0 hPa 47% 0.0mm
01/03:00pm ESE 11-17 kts 33.4°c 1007.1 hPa 48% 0.0mm
01/02:30pm ESE 12-18 kts 32.8°c 1007.2 hPa 47% 0.0mm
01/02:00pm E 12-16 kts 33.6°c 1007.4 hPa 52% 0.0mm
01/01:30pm ESE 13-19 kts 32.8°c 1007.6 hPa 50% 0.0mm
01/01:00pm ESE 15-22 kts 32.7°c 1008.0 hPa 50% 0.0mm
01/12:30pm ESE 13-19 kts 31.9°c 1008.6 hPa 54% 0.0mm
01/12:00pm E 12-17 kts 32.0°c 1009.0 hPa 59% 0.0mm
01/11:30am E 15-21 kts 31.6°c 1009.2 hPa 55% 0.0mm
01/11:00am E 13-17 kts 30.6°c 1009.8 hPa 62% 0.0mm
01/10:30am ESE 12-17 kts 30.6°c 1010.4 hPa 68% 0.0mm
01/10:00am ESE 13-17 kts 28.7°c 1010.4 hPa 71% 0.0mm
01/09:30am ESE 10-13 kts 27.8°c 1010.4 hPa 75% 0.0mm
01/09:00am ESE 9-13 kts 26.5°c 1010.3 hPa 79% 0.2mm
01/08:30am SE 7-10 kts 25.6°c 1010.0 hPa 82% 0.2mm
01/08:00am SSE 4-6 kts 24.4°c 1009.7 hPa 87% 0.2mm
01/07:30am SE 5-6 kts 23.8°c 1009.1 hPa 88% 0.2mm
01/07:00am SE 4-5 kts 23.8°c 1008.7 hPa 87% 0.2mm
01/06:30am SE 4-6 kts 23.6°c 1008.6 hPa 87% 0.2mm
01/06:00am SE 5-7 kts 23.8°c 1008.3 hPa 85% 0.2mm
01/05:30am SE 5-7 kts 24.1°c 1008.1 hPa 85% 0.2mm
01/05:00am SSE 4-5 kts 24.1°c 1008.0 hPa 85% 0.2mm
01/04:30am SSE 5-6 kts 24.5°c 1007.7 hPa 83% 0.2mm
01/04:00am SE 5-7 kts 24.6°c 1007.6 hPa 83% 0.2mm
01/03:30am SSE 5-8 kts 24.7°c 1007.9 hPa 82% 0.2mm
01/03:00am SSE 5-7 kts 24.8°c 1008.2 hPa 82% 0.2mm
01/02:30am SE 5-7 kts 24.9°c 1008.2 hPa 82% 0.2mm
01/02:00am SE 7-9 kts 25.1°c 1008.5 hPa 81% 0.2mm
01/01:30am SE 5-6 kts 24.7°c 1008.9 hPa 85% 0.2mm
01/01:00am SSE 4-5 kts 24.1°c 1009.0 hPa 85% 0.2mm
01/12:49am S 4-6 kts 24.1°c 1009.0 hPa 85% 0.2mm
01/12:47am S 4-5 kts 24.1°c 1009.0 hPa 85% 0.2mm
01/12:30am SSE 3-4 kts 24.3°c 1009.1 hPa 84% 0.2mm
01/12:16am SSE 4 kts 24.5°c 1009.4 hPa 83% 0.2mm
01/12:14am SSE 4-5 kts 24.6°c 1009.4 hPa 82% 0.2mm
01/12:00am SSE 4 kts 24.7°c 1009.4 hPa 81% 0.2mm